Météo par heure à Abakanovo

Ce jour, 26 Novembre, Jeudi

Heure Température Précipitation Vent Pression Humidité
00:00 -1°C° 0.2 mm 2 m/s 739 mmHg 91%
01:00 +1°C° 0.2 mm 2 m/s 739 mmHg 94%
02:00 0°C° 0.2 mm 3 m/s 739 mmHg 97%
03:00 0°C° 0.6 mm 3 m/s 739 mmHg 97%
04:00 +1°C° 0.6 mm 3 m/s 738 mmHg 97%
05:00 +1°C° 0.6 mm 3 m/s 738 mmHg 97%
06:00 +1°C° 0.3 mm 3 m/s 738 mmHg 97%
07:00 +2°C° 0.3 mm 3 m/s 738 mmHg 98%
08:00 +3°C° 0.3 mm 2 m/s 738 mmHg 98%
09:00 +3°C° 0.1 mm 3 m/s 737 mmHg 96%
10:00 +3°C° 0.1 mm 3 m/s 737 mmHg 95%
11:00 +4°C° 0.1 mm 3 m/s 736 mmHg 94%
12:00 +3°C° 0 mm 3 m/s 736 mmHg 92%
13:00 +3°C° 0 mm 3 m/s 736 mmHg 90%
14:00 +3°C° 0 mm 3 m/s 736 mmHg 88%
15:00 +3°C° 0 mm 3 m/s 736 mmHg 87%
16:00 +2°C° 0 mm 3 m/s 735 mmHg 87%
17:00 +2°C° 0 mm 3 m/s 735 mmHg 87%
18:00 +1°C° 0 mm 3 m/s 735 mmHg 87%
19:00 +1°C° 0 mm 3 m/s 734 mmHg 88%
20:00 0°C° 0 mm 3 m/s 734 mmHg 88%
21:00 0°C° 0 mm 3 m/s 734 mmHg 88%
22:00 -1°C° 0 mm 4 m/s 733 mmHg 87%
23:00 -1°C° 0 mm 4 m/s 733 mmHg 87%

Demain, 27 Novembre, Vendredi

Heure Température Précipitation Vent Pression Humidité
00:00 -1°C° 0 mm 4 m/s 732 mmHg 88%
01:00 -1°C° 0 mm 4 m/s 732 mmHg 89%
02:00 -1°C° 0 mm 4 m/s 732 mmHg 90%
03:00 0°C° 0.3 mm 3 m/s 732 mmHg 92%
04:00 0°C° 0.3 mm 3 m/s 731 mmHg 94%
05:00 0°C° 0.3 mm 3 m/s 731 mmHg 96%
06:00 +1°C° 0.7 mm 3 m/s 731 mmHg 97%
07:00 +1°C° 0.7 mm 3 m/s 731 mmHg 97%
08:00 +2°C° 0.7 mm 2 m/s 731 mmHg 97%
09:00 +2°C° 0.7 mm 2 m/s 731 mmHg 97%
10:00 +2°C° 0.7 mm 2 m/s 730 mmHg 97%
11:00 +3°C° 0.7 mm 1 m/s 730 mmHg 98%
12:00 +2°C° 0.9 mm 2 m/s 731 mmHg 97%
13:00 +2°C° 0.9 mm 2 m/s 731 mmHg 97%
14:00 +1°C° 0.9 mm 2 m/s 731 mmHg 97%
15:00 +1°C° 1 mm 2 m/s 731 mmHg 97%
16:00 0°C° 1 mm 3 m/s 731 mmHg 96%
17:00 -1°C° 1 mm 3 m/s 732 mmHg 96%
18:00 -1°C° 0.8 mm 3 m/s 732 mmHg 96%
19:00 -1°C° 0.8 mm 3 m/s 732 mmHg 97%
20:00 -1°C° 0.8 mm 3 m/s 733 mmHg 97%
21:00 -1°C° 0.6 mm 3 m/s 733 mmHg 97%
22:00 0°C° 0.6 mm 3 m/s 734 mmHg 97%
23:00 +1°C° 0.6 mm 2 m/s 734 mmHg 97%

Après-demain, 28 Novembre, Samedi

Heure Température Précipitation Vent Pression Humidité
00:00 0°C° 0.2 mm 3 m/s 735 mmHg 97%
01:00 0°C° 0.2 mm 3 m/s 735 mmHg 97%
02:00 0°C° 0.2 mm 3 m/s 736 mmHg 97%
03:00 +1°C° 0.1 mm 2 m/s 736 mmHg 97%
04:00 +1°C° 0.1 mm 2 m/s 737 mmHg 97%
05:00 +1°C° 0.1 mm 2 m/s 737 mmHg 97%
06:00 +1°C° 0.3 mm 2 m/s 737 mmHg 97%
07:00 +1°C° 0.3 mm 2 m/s 738 mmHg 97%
08:00 +1°C° 0.3 mm 2 m/s 738 mmHg 98%
09:00 +1°C° 0.1 mm 2 m/s 739 mmHg 97%
10:00 +1°C° 0.1 mm 2 m/s 739 mmHg 97%
11:00 +1°C° 0.1 mm 2 m/s 740 mmHg 97%
12:00 +1°C° 0.1 mm 2 m/s 740 mmHg 97%
13:00 +1°C° 0.1 mm 2 m/s 741 mmHg 97%
14:00 +1°C° 0.1 mm 2 m/s 741 mmHg 96%
15:00 +1°C° 0.1 mm 2 m/s 742 mmHg 96%
16:00 +1°C° 0.1 mm 2 m/s 742 mmHg 96%
17:00 -1°C° 0.1 mm 2 m/s 742 mmHg 96%
18:00 -1°C° 0.1 mm 2 m/s 743 mmHg 96%
19:00 -1°C° 0.1 mm 2 m/s 743 mmHg 96%
20:00 -1°C° 0.1 mm 2 m/s 744 mmHg 95%
21:00 -1°C° 0.1 mm 2 m/s 744 mmHg 95%
22:00 -2°C° 0.1 mm 2 m/s 744 mmHg 95%
23:00 -2°C° 0.1 mm 2 m/s 745 mmHg 95%

29 Novembre, Dimanche

Heure Température Précipitation Vent Pression Humidité
00:00 -2°C° 0.1 mm 2 m/s 745 mmHg 95%
01:00 -2°C° 0.1 mm 2 m/s 745 mmHg 96%
02:00 -2°C° 0.1 mm 2 m/s 745 mmHg 96%
03:00 0°C° 0 mm 1 m/s 746 mmHg 96%
04:00 0°C° 0 mm 1 m/s 746 mmHg 96%
05:00 0°C° 0 mm 1 m/s 746 mmHg 97%
06:00 0°C° 0 mm 1 m/s 746 mmHg 96%
07:00 -1°C° 0 mm 1 m/s 746 mmHg 95%
08:00 -3°C° 0 mm 2 m/s 746 mmHg 95%
09:00 -2°C° 0 mm 2 m/s 747 mmHg 92%
10:00 -2°C° 0 mm 2 m/s 747 mmHg 89%
11:00 -1°C° 0 mm 3 m/s 747 mmHg 85%
12:00 -1°C° 0 mm 3 m/s 746 mmHg 84%
13:00 -1°C° 0 mm 3 m/s 746 mmHg 82%
14:00 -1°C° 0 mm 3 m/s 746 mmHg 81%
15:00 -1°C° 0 mm 3 m/s 746 mmHg 84%
16:00 -2°C° 0 mm 3 m/s 746 mmHg 87%
17:00 -2°C° 0 mm 3 m/s 745 mmHg 90%
18:00 -1°C° 0 mm 3 m/s 745 mmHg 91%
19:00 -2°C° 0 mm 4 m/s 745 mmHg 92%
20:00 -1°C° 0 mm 4 m/s 745 mmHg 92%
21:00 -1°C° 0 mm 4 m/s 745 mmHg 92%
22:00 -1°C° 0 mm 4 m/s 745 mmHg 92%
23:00 0°C° 0 mm 4 m/s 745 mmHg 91%

30 Novembre, Lundi

Heure Température Précipitation Vent Pression Humidité
00:00 +1°C° 0.1 mm 3 m/s 744 mmHg 93%
01:00 +1°C° 0.1 mm 3 m/s 744 mmHg 95%
02:00 0°C° 0.1 mm 3 m/s 743 mmHg 97%
03:00 +1°C° 0 mm 3 m/s 743 mmHg 97%
04:00 +1°C° 0 mm 3 m/s 742 mmHg 96%
05:00 +1°C° 0 mm 3 m/s 742 mmHg 96%
06:00 +1°C° 0.3 mm 3 m/s 742 mmHg 96%
07:00 +1°C° 0.3 mm 3 m/s 742 mmHg 97%
08:00 +2°C° 0.3 mm 3 m/s 741 mmHg 97%
09:00 +1°C° 0.5 mm 3 m/s 741 mmHg 96%
10:00 +1°C° 0.5 mm 3 m/s 741 mmHg 95%
11:00 +1°C° 0.5 mm 3 m/s 741 mmHg 95%
12:00 +1°C° 0.1 mm 3 m/s 741 mmHg 94%
13:00 0°C° 0.1 mm 3 m/s 741 mmHg 93%
14:00 0°C° 0.1 mm 3 m/s 740 mmHg 92%
15:00 -1°C° 0.1 mm 3 m/s 740 mmHg 92%
16:00 -2°C° 0.1 mm 3 m/s 740 mmHg 93%
17:00 -2°C° 0.1 mm 3 m/s 741 mmHg 94%
18:00 -2°C° 0.2 mm 3 m/s 741 mmHg 94%
19:00 -2°C° 0.2 mm 3 m/s 741 mmHg 94%
20:00 -2°C° 0.2 mm 3 m/s 741 mmHg 94%
21:00 -2°C° 0.1 mm 3 m/s 741 mmHg 94%
22:00 -2°C° 0.1 mm 3 m/s 742 mmHg 94%
23:00 -2°C° 0.1 mm 3 m/s 742 mmHg 93%

1 Décembre, Mardi

Heure Température Précipitation Vent Pression Humidité
00:00 -3°C° 0.2 mm 4 m/s 742 mmHg 94%
01:00 -2°C° 0.2 mm 4 m/s 742 mmHg 95%
02:00 -2°C° 0.2 mm 4 m/s 743 mmHg 96%
03:00 -2°C° 0 mm 4 m/s 743 mmHg 93%
04:00 -3°C° 0 mm 4 m/s 743 mmHg 90%
05:00 -3°C° 0 mm 4 m/s 743 mmHg 87%
06:00 -2°C° 0 mm 3 m/s 744 mmHg 87%
07:00 -2°C° 0 mm 3 m/s 744 mmHg 87%
08:00 -4°C° 0 mm 3 m/s 744 mmHg 86%
09:00 -4°C° 0 mm 3 m/s 744 mmHg 85%
10:00 -4°C° 0 mm 4 m/s 744 mmHg 84%
11:00 -4°C° 0 mm 4 m/s 745 mmHg 83%
12:00 -4°C° 0 mm 4 m/s 744 mmHg 83%
13:00 -4°C° 0 mm 4 m/s 744 mmHg 83%
14:00 -4°C° 0 mm 4 m/s 744 mmHg 83%
15:00 -4°C° 0 mm 4 m/s 744 mmHg 84%
16:00 -4°C° 0 mm 4 m/s 744 mmHg 85%
17:00 -4°C° 0 mm 4 m/s 744 mmHg 87%
18:00 -4°C° 0 mm 4 m/s 744 mmHg 87%
19:00 -5°C° 0 mm 5 m/s 744 mmHg 88%
20:00 -5°C° 0 mm 5 m/s 744 mmHg 88%
21:00 -5°C° 0 mm 5 m/s 744 mmHg 89%
22:00 -3°C° 0 mm 4 m/s 743 mmHg 90%
23:00 -3°C° 0 mm 4 m/s 743 mmHg 91%
Voir plus

Nous avons besoin de votre consentement

Meteoprog et ses fournisseurs de services peuvent stocker et accéder à des données personnelles telles que des cookies, des identifiants d'appareils ou d'autres technologies similaires sur votre appareil et traiter ces données pour personnaliser le contenu et les publicités, ainsi que pour fournir des fonctionnalités de médias sociaux et analyser le trafic.

  • Stocker et/ou accéder à des informations sur votre appareil

    Des cookies, des identifiants d'appareils ou d'autres informations peuvent être stockés ou accessibles sur votre appareil aux fins indiquées ci-dessus.

  • Annonces et contenus personnalisés, mesure des annonces et des contenus, connaissance de l'audience et développement de produits

    Les annonces et le contenu peuvent être personnalisés en fonction d'un profil. D'autres données peuvent être ajoutées pour mieux personnaliser les annonces et le contenu. Les performances des publicités et du contenu peuvent être mesurées. Il est possible d'obtenir des informations sur le public qui a vu les publicités et le contenu. Ces données peuvent être utilisées pour développer ou améliorer l'expérience de l'utilisateur, les systèmes et les logiciels.

En cliquant sur "J'accepte", vous autorisez l'utilisation de cookies, des identifiants d'appareils, des balises web ou d'autres technologies similaires. Vos paramètres peuvent être modifiés dans le navigateur de votre appareil.

Dans certains cas, des intérêts légitimes peuvent être invoqués plutôt qu'un consentement. Vous pouvez en savoir plus à ce sujet dans notre Politique de confidentialité et de cookies.